Hourly Data Report for December 06, 2019

All times are specified in Local Standard Time (LST). Add 1 hour to adjust for Daylight Saving Time where and when it is observed.

SATURNA ISLAND CS
BRITISH COLUMBIA
Current Station Operator: ECCC - MSC

48°47'02.067" N
123°02'41.082" W
24.40 m
1017101
71473
WEZ

Download Data

Hourly Data (December 2019)
Hourly Data Report for December 6, 2019
TIME Temp Definition
°C
Dew Point Definition
°C
Rel Hum Definition
%
Wind Dir Definition
10's deg

Wind Spd Definition
km/h
Visibility Definition
km
Stn Press Definition
kPa
Hmdx Definition


Wind Chill Definition


Weather Definition


00:00 6.3 4.2 86 34 4   101.25     LegendNANA
01:00 6.2 5.0 92 5 7   101.20     LegendNANA
02:00 6.5 5.2 91 10 7   101.18     LegendNANA
03:00 6.3 5.0 91 10 5   101.15     LegendNANA
04:00 6.2 5.1 93 1 7   101.10     LegendNANA
05:00 6.1 4.9 92 1 9   101.06     LegendNANA
06:00 6.1 4.9 93 32 4   101.01     LegendNANA
07:00 6.0 5.1 93 31 4   101.01     LegendNANA
08:00 6.0 5.2 95 33 6   100.99     LegendNANA
09:00 6.1 5.4 95 34 9   101.01     LegendNANA
10:00 6.4 5.5 94 36 6   101.01     LegendNANA
11:00 7.1 5.4 89 34 4   101.00     LegendNANA
12:00 7.0 5.6 91 33 7   100.93     LegendNANA
13:00 7.6 5.8 88 34 9   100.83     LegendNANA
14:00 6.9 5.6 92 33 6   100.74     LegendNANA
15:00 6.8 5.7 93 31 6   100.75     LegendNANA
16:00 6.7 5.8 94 31 8   100.71     LegendNANA
17:00 6.5 5.9 96 34 10   100.64     LegendNANA
18:00 7.0 6.5 97 7 13   100.61     LegendNANA
19:00 6.9 6.3 96 31 8   100.56     LegendNANA
20:00 6.9 6.4 97 4 7   100.56     LegendNANA
21:00 7.3 6.8 97 4 6   100.56     LegendNANA
22:00 7.1 6.5 97 8 8   100.53     LegendNANA
23:00 7.7 7.2 97 17 4   100.54     LegendNANA

Notes on Data Quality.

Legend

  • E = Estimated
  • M = Missing
  • NA = Not Available
Date modified: